Time,TemperatureF,DewpointF,PressureIn,WindDirection,WindDirectionDegrees,WindSpeedMPH,WindSpeedGustMPH,Humidity,HourlyPrecipIn,Conditions,Clouds,dailyrainin,SolarRadiationWatts/m^2,SoftwareType,DateUTC
2013-05-21 00:01:00,54.5,53.7,30.01,South,181,0.0,0.0,97,0.00,,,0.00,0,Wunderground v.1.15,2013-05-21 04:01:00,
2013-05-21 00:02:00,54.5,53.7,30.01,South,181,0.0,0.0,97,0.00,,,0.00,0,Wunderground v.1.15,2013-05-21 04:02:00,
2013-05-21 00:03:00,54.5,53.7,30.01,South,181,0.0,2.0,97,0.00,,,0.00,0,Wunderground v.1.15,2013-05-21 04:03:00,
2013-05-21 00:06:00,54.5,53.7,30.01,SE,137,0.0,4.0,97,0.00,,,0.00,0,Wunderground v.1.15,2013-05-21 04:06:00,
2013-05-21 00:09:00,54.4,53.6,30.01,SSE,148,0.0,4.0,97,0.00,,,0.00,0,Wunderground v.1.15,2013-05-21 04:09:00,
2013-05-21 00:15:00,54.4,53.6,30.01,SSE,148,0.0,1.0,97,0.00,,,0.00,0,Wunderground v.1.15,2013-05-21 04:15:00,
2013-05-21 00:21:00,54.4,53.6,30.01,South,175,0.0,2.0,97,0.00,,,0.00,0,Wunderground v.1.15,2013-05-21 04:21:00,
2013-05-21 00:26:00,54.4,53.6,30.01,SSE,163,1.0,2.0,97,0.00,,,0.00,0,Wunderground v.1.15,2013-05-21 04:26:00,
2013-05-21 00:32:00,54.3,53.5,30.01,SSE,163,0.0,0.0,97,0.00,,,0.00,0,Wunderground v.1.15,2013-05-21 04:32:00,
2013-05-21 00:38:00,54.2,53.4,30.01,SSE,149,0.0,1.0,97,0.00,,,0.00,0,Wunderground v.1.15,2013-05-21 04:38:00,
2013-05-21 00:44:00,54.2,53.4,30.01,SSE,156,1.0,2.0,97,0.00,,,0.00,0,Wunderground v.1.15,2013-05-21 04:44:00,
2013-05-21 00:49:00,54.2,53.4,30.01,SSE,157,1.0,2.0,97,0.00,,,0.00,0,Wunderground v.1.15,2013-05-21 04:49:00,
2013-05-21 00:55:00,54.1,53.3,30.02,SSE,157,0.0,1.0,97,0.00,,,0.00,0,Wunderground v.1.15,2013-05-21 04:55:00,
2013-05-21 01:01:00,54.1,53.3,30.01,SSE,156,0.0,0.0,97,0.00,,,0.00,0,Wunderground v.1.15,2013-05-21 05:01:00,
2013-05-21 01:06:00,54.0,53.2,30.01,SSE,157,1.0,1.0,97,0.00,,,0.00,0,Wunderground v.1.15,2013-05-21 05:06:00,
2013-05-21 01:11:00,53.9,53.1,30.01,SSE,160,1.0,1.0,97,0.00,,,0.00,0,Wunderground v.1.15,2013-05-21 05:11:00,
2013-05-21 01:17:00,53.9,53.1,30.01,SE,139,1.0,3.0,97,0.00,,,0.00,0,Wunderground v.1.15,2013-05-21 05:17:00,
2013-05-21 01:22:00,53.8,53.0,30.01,SE,144,1.0,2.0,97,0.00,,,0.00,0,Wunderground v.1.15,2013-05-21 05:22:00,
2013-05-21 01:27:00,53.8,53.0,30.01,South,173,1.0,2.0,97,0.00,,,0.00,0,Wunderground v.1.15,2013-05-21 05:27:00,
2013-05-21 01:32:00,53.8,53.0,30.01,South,182,1.0,1.0,97,0.00,,,0.00,0,Wunderground v.1.15,2013-05-21 05:32:00,
2013-05-21 01:37:00,53.8,53.0,30.01,South,177,1.0,2.0,97,0.00,,,0.00,0,Wunderground v.1.15,2013-05-21 05:37:00,
2013-05-21 01:43:00,53.8,53.0,30.01,SSE,156,1.0,1.0,97,0.00,,,0.00,0,Wunderground v.1.15,2013-05-21 05:43:00,
2013-05-21 01:49:00,53.7,52.9,30.01,SE,146,1.0,1.0,97,0.00,,,0.00,0,Wunderground v.1.15,2013-05-21 05:49:00,
2013-05-21 01:55:00,53.7,52.9,30.01,SSE,155,1.0,1.0,97,0.00,,,0.00,0,Wunderground v.1.15,2013-05-21 05:55:00,
2013-05-21 02:00:00,53.7,52.9,30.01,SE,138,1.0,1.0,97,0.00,,,0.00,0,Wunderground v.1.15,2013-05-21 06:00:00,
2013-05-21 02:05:00,53.6,52.8,30.01,SE,146,1.0,1.0,97,0.00,,,0.00,0,Wunderground v.1.15,2013-05-21 06:05:00,
2013-05-21 02:11:00,53.6,52.8,30.01,SE,145,0.0,2.0,97,0.00,,,0.00,0,Wunderground v.1.15,2013-05-21 06:11:00,
2013-05-21 02:17:00,53.6,52.8,30.01,SE,141,0.0,2.0,97,0.00,,,0.00,0,Wunderground v.1.15,2013-05-21 06:17:00,
2013-05-21 02:22:00,53.5,52.7,30.00,SE,136,1.0,3.0,97,0.00,,,0.00,0,Wunderground v.1.15,2013-05-21 06:22:00,
2013-05-21 02:27:00,53.5,52.7,30.01,South,188,2.0,4.0,97,0.00,,,0.00,0,Wunderground v.1.15,2013-05-21 06:27:00,
2013-05-21 02:33:00,53.4,52.6,30.01,South,191,2.0,2.0,97,0.00,,,0.00,0,Wunderground v.1.15,2013-05-21 06:33:00,
2013-05-21 02:39:00,53.4,52.6,30.01,SSE,168,2.0,4.0,97,0.00,,,0.00,0,Wunderground v.1.15,2013-05-21 06:39:00,
2013-05-21 02:44:00,53.3,52.5,30.01,SE,145,2.0,4.0,97,0.00,,,0.00,0,Wunderground v.1.15,2013-05-21 06:44:00,
2013-05-21 02:50:00,53.2,52.4,30.01,South,179,2.0,2.0,97,0.00,,,0.00,0,Wunderground v.1.15,2013-05-21 06:50:00,
2013-05-21 02:55:00,53.1,52.3,30.01,SSE,167,1.0,3.0,97,0.00,,,0.00,0,Wunderground v.1.15,2013-05-21 06:55:00,
2013-05-21 03:00:00,53.1,52.3,30.01,SSE,157,1.0,1.0,97,0.00,,,0.00,0,Wunderground v.1.15,2013-05-21 07:00:00,
2013-05-21 03:05:00,53.0,52.2,30.01,South,171,1.0,3.0,97,0.00,,,0.00,0,Wunderground v.1.15,2013-05-21 07:05:00,
2013-05-21 03:10:00,52.9,52.1,30.01,SSE,155,1.0,1.0,97,0.00,,,0.00,0,Wunderground v.1.15,2013-05-21 07:10:00,
2013-05-21 03:15:00,52.8,52.0,30.01,SSW,209,1.0,1.0,97,0.00,,,0.00,0,Wunderground v.1.15,2013-05-21 07:15:00,
2013-05-21 03:20:00,52.8,52.0,30.01,SSE,157,0.0,0.0,97,0.00,,,0.00,0,Wunderground v.1.15,2013-05-21 07:20:00,
2013-05-21 03:25:00,52.7,51.9,30.01,SSE,157,0.0,1.0,97,0.00,,,0.00,0,Wunderground v.1.15,2013-05-21 07:25:00,
2013-05-21 03:31:00,52.7,51.9,30.01,SSE,157,0.0,0.0,97,0.00,,,0.00,0,Wunderground v.1.15,2013-05-21 07:31:00,
2013-05-21 03:37:00,52.6,51.8,30.00,South,173,0.0,1.0,97,0.00,,,0.00,0,Wunderground v.1.15,2013-05-21 07:37:00,
2013-05-21 03:42:00,52.6,51.8,30.00,SSW,209,1.0,1.0,97,0.00,,,0.00,0,Wunderground v.1.15,2013-05-21 07:42:00,
2013-05-21 03:47:00,52.4,51.6,30.00,SSW,202,1.0,1.0,97,0.00,,,0.00,0,Wunderground v.1.15,2013-05-21 07:47:00,
2013-05-21 03:53:00,52.2,51.4,30.00,SSW,211,0.0,2.0,97,0.00,,,0.00,0,Wunderground v.1.15,2013-05-21 07:53:00,
2013-05-21 03:59:00,52.0,51.2,30.00,SW,219,1.0,3.0,97,0.00,,,0.00,0,Wunderground v.1.15,2013-05-21 07:59:00,
2013-05-21 04:04:00,51.9,51.1,30.00,South,178,1.0,2.0,97,0.00,,,0.00,0,Wunderground v.1.15,2013-05-21 08:04:00,
2013-05-21 04:10:00,51.8,51.0,29.99,SSW,198,1.0,1.0,97,0.00,,,0.00,0,Wunderground v.1.15,2013-05-21 08:10:00,
2013-05-21 04:16:00,51.7,50.9,29.99,South,188,0.0,1.0,97,0.00,,,0.00,0,Wunderground v.1.15,2013-05-21 08:16:00,
2013-05-21 04:22:00,51.6,50.8,29.99,SW,227,0.0,1.0,97,0.00,,,0.00,0,Wunderground v.1.15,2013-05-21 08:22:00,
2013-05-21 04:27:00,51.5,50.7,29.99,SSW,207,0.0,1.0,97,0.00,,,0.00,0,Wunderground v.1.15,2013-05-21 08:27:00,
2013-05-21 04:32:00,51.4,50.6,29.99,SSE,159,0.0,0.0,97,0.00,,,0.00,0,Wunderground v.1.15,2013-05-21 08:32:00,
2013-05-21 04:38:00,51.3,50.5,29.99,SSW,196,1.0,1.0,97,0.00,,,0.00,0,Wunderground v.1.15,2013-05-21 08:38:00,
2013-05-21 04:43:00,51.2,50.4,29.99,SSE,155,1.0,3.0,97,0.00,,,0.00,0,Wunderground v.1.15,2013-05-21 08:43:00,
2013-05-21 04:48:00,51.0,50.2,29.99,SSE,149,1.0,3.0,97,0.00,,,0.00,0,Wunderground v.1.15,2013-05-21 08:48:00,
2013-05-21 04:54:00,50.7,49.9,29.99,SSE,159,1.0,4.0,97,0.00,,,0.00,0,Wunderground v.1.15,2013-05-21 08:54:00,
2013-05-21 04:59:00,50.5,49.7,29.99,SSE,153,2.0,4.0,97,0.00,,,0.00,0,Wunderground v.1.15,2013-05-21 08:59:00,
2013-05-21 05:04:00,50.3,49.5,29.99,SE,139,1.0,2.0,97,0.00,,,0.00,0,Wunderground v.1.15,2013-05-21 09:04:00,
2013-05-21 05:10:00,50.1,49.3,29.99,SSE,150,1.0,1.0,97,0.00,,,0.00,0,Wunderground v.1.15,2013-05-21 09:10:00,
2013-05-21 05:15:00,50.1,49.3,29.99,SSE,150,0.0,1.0,97,0.00,,,0.00,0,Wunderground v.1.15,2013-05-21 09:15:00,
2013-05-21 05:21:00,49.9,49.1,29.99,SSW,198,1.0,1.0,97,0.00,,,0.00,5,Wunderground v.1.15,2013-05-21 09:21:00,
2013-05-21 05:27:00,49.7,48.9,29.99,South,178,1.0,2.0,97,0.00,,,0.00,7,Wunderground v.1.15,2013-05-21 09:27:00,
2013-05-21 05:32:00,49.6,48.8,29.99,SSE,161,1.0,1.0,97,0.00,,,0.00,9,Wunderground v.1.15,2013-05-21 09:32:00,
2013-05-21 05:37:00,49.6,48.8,29.99,SSE,148,1.0,3.0,97,0.00,,,0.00,14,Wunderground v.1.15,2013-05-21 09:37:00,
2013-05-21 05:42:00,49.5,48.7,29.99,SSE,160,2.0,2.0,97,0.00,,,0.00,12,Wunderground v.1.15,2013-05-21 09:42:00,
2013-05-21 05:47:00,49.5,48.7,29.99,South,180,1.0,2.0,97,0.00,,,0.00,14,Wunderground v.1.15,2013-05-21 09:47:00,
2013-05-21 05:53:00,49.5,48.7,30.00,South,180,0.0,1.0,97,0.00,,,0.00,14,Wunderground v.1.15,2013-05-21 09:53:00,
2013-05-21 05:58:00,49.5,48.7,30.00,South,180,0.0,1.0,97,0.00,,,0.00,14,Wunderground v.1.15,2013-05-21 09:58:00,
2013-05-21 06:04:00,49.5,48.7,30.00,SSW,198,0.0,0.0,97,0.00,,,0.00,25,Wunderground v.1.15,2013-05-21 10:04:00,
2013-05-21 06:09:00,49.5,48.7,30.00,SSW,198,0.0,0.0,97,0.00,,,0.00,42,Wunderground v.1.15,2013-05-21 10:09:00,
2013-05-21 06:14:00,49.5,48.7,30.01,SSE,153,0.0,2.0,97,0.00,,,0.00,21,Wunderground v.1.15,2013-05-21 10:14:00,
2013-05-21 06:19:00,49.5,48.7,30.01,SSE,147,0.0,2.0,97,0.00,,,0.00,16,Wunderground v.1.15,2013-05-21 10:19:00,
2013-05-21 06:25:00,49.6,48.8,30.00,South,176,1.0,3.0,97,0.00,,,0.00,16,Wunderground v.1.15,2013-05-21 10:25:00,
2013-05-21 06:30:00,49.5,48.7,29.99,SSW,194,1.0,1.0,97,0.00,,,0.00,25,Wunderground v.1.15,2013-05-21 10:30:00,
2013-05-21 06:36:00,49.5,48.7,29.99,SE,127,2.0,3.0,97,0.00,,,0.00,35,Wunderground v.1.15,2013-05-21 10:36:00,
2013-05-21 06:41:00,49.5,48.7,29.99,SSE,149,1.0,1.0,97,0.00,,,0.00,39,Wunderground v.1.15,2013-05-21 10:41:00,
2013-05-21 06:46:00,49.5,48.7,29.99,NW,307,1.0,2.0,97,0.00,,,0.00,46,Wunderground v.1.15,2013-05-21 10:46:00,
2013-05-21 06:52:00,49.5,48.7,30.00,SSW,193,1.0,1.0,97,0.00,,,0.00,44,Wunderground v.1.15,2013-05-21 10:52:00,
2013-05-21 06:57:00,49.5,48.7,30.00,ESE,116,1.0,1.0,97,0.00,,,0.00,46,Wunderground v.1.15,2013-05-21 10:57:00,
2013-05-21 07:02:00,49.6,48.8,30.00,ESE,116,0.0,1.0,97,0.00,,,0.00,53,Wunderground v.1.15,2013-05-21 11:02:00,
2013-05-21 07:08:00,49.7,48.9,30.00,East,91,0.0,1.0,97,0.00,,,0.00,30,Wunderground v.1.15,2013-05-21 11:08:00,
2013-05-21 07:13:00,49.7,48.9,29.99,East,94,0.0,0.0,97,0.00,,,0.00,40,Wunderground v.1.15,2013-05-21 11:13:00,
2013-05-21 07:18:00,49.8,49.0,30.00,ESE,123,0.0,1.0,97,0.00,,,0.00,49,Wunderground v.1.15,2013-05-21 11:18:00,
2013-05-21 07:24:00,49.9,49.1,30.01,South,180,0.0,5.0,97,0.00,,,0.00,40,Wunderground v.1.15,2013-05-21 11:24:00,
2013-05-21 07:29:00,49.9,48.8,30.00,SSE,153,1.0,5.0,96,0.00,,,0.00,56,Wunderground v.1.15,2013-05-21 11:29:00,
2013-05-21 07:35:00,49.8,48.7,30.00,South,181,2.0,6.0,96,0.00,,,0.00,35,Wunderground v.1.15,2013-05-21 11:35:00,
2013-05-21 07:41:00,49.9,48.8,30.01,South,178,1.0,2.0,96,0.00,,,0.00,28,Wunderground v.1.15,2013-05-21 11:41:00,
2013-05-21 07:46:00,49.9,48.8,30.01,SE,138,2.0,5.0,96,0.00,,,0.00,30,Wunderground v.1.15,2013-05-21 11:46:00,
2013-05-21 07:52:00,49.7,48.6,30.01,South,180,3.0,3.0,96,0.00,,,0.00,19,Wunderground v.1.15,2013-05-21 11:52:00,
2013-05-21 07:58:00,49.6,48.2,30.01,South,180,2.0,4.0,95,0.00,,,0.00,28,Wunderground v.1.15,2013-05-21 11:58:00,
2013-05-21 08:03:00,49.6,48.5,30.01,SSW,197,2.0,3.0,96,0.00,,,0.00,23,Wunderground v.1.15,2013-05-21 12:03:00,
2013-05-21 08:09:00,49.7,48.6,30.01,SE,137,1.0,3.0,96,0.00,,,0.00,35,Wunderground v.1.15,2013-05-21 12:09:00,
2013-05-21 08:15:00,49.6,48.2,30.00,SSE,147,1.0,4.0,95,0.00,,,0.00,25,Wunderground v.1.15,2013-05-21 12:15:00,
2013-05-21 08:21:00,49.5,48.1,30.00,ESE,121,2.0,2.0,95,0.00,,,0.00,21,Wunderground v.1.15,2013-05-21 12:21:00,
2013-05-21 08:26:00,49.5,48.1,30.01,SSE,151,1.0,2.0,95,0.00,,,0.01,39,Wunderground v.1.15,2013-05-21 12:26:00,
2013-05-21 08:31:00,49.5,48.1,29.97,NE,36,1.0,1.0,95,0.31,,,0.03,83,Wunderground v.1.15,2013-05-21 12:31:00,
2013-05-21 08:36:00,49.5,48.4,29.97,East,91,2.0,6.0,96,0.16,,,0.04,102,Wunderground v.1.15,2013-05-21 12:36:00,
2013-05-21 08:41:00,49.4,48.3,29.97,East,94,2.0,3.0,96,0.08,,,0.04,132,Wunderground v.1.15,2013-05-21 12:41:00,
2013-05-21 08:46:00,49.3,48.2,30.00,North,355,2.0,3.0,96,0.06,,,0.05,23,Wunderground v.1.15,2013-05-21 12:46:00,
2013-05-21 08:52:00,49.3,48.2,30.00,SE,127,1.0,2.0,96,0.06,,,0.05,46,Wunderground v.1.15,2013-05-21 12:52:00,
2013-05-21 08:57:00,49.3,48.2,30.00,SSE,155,1.0,3.0,96,0.05,,,0.05,25,Wunderground v.1.15,2013-05-21 12:57:00,
2013-05-21 09:02:00,49.2,48.1,30.00,SSE,150,1.0,2.0,96,0.04,,,0.06,23,Wunderground v.1.15,2013-05-21 13:02:00,
2013-05-21 09:07:00,49.1,48.0,30.01,ESE,116,1.0,3.0,96,0.04,,,0.06,16,Wunderground v.1.15,2013-05-21 13:07:00,
2013-05-21 09:13:00,49.1,48.0,30.01,SE,127,1.0,2.0,96,0.04,,,0.06,21,Wunderground v.1.15,2013-05-21 13:13:00,
2013-05-21 09:18:00,49.1,48.0,30.01,South,174,1.0,3.0,96,0.00,,,0.06,19,Wunderground v.1.15,2013-05-21 13:18:00,
2013-05-21 09:23:00,49.0,48.2,30.01,SE,136,2.0,2.0,97,0.00,,,0.06,35,Wunderground v.1.15,2013-05-21 13:23:00,
2013-05-21 09:28:00,49.0,48.2,30.01,East,92,1.0,2.0,97,0.00,,,0.07,51,Wunderground v.1.15,2013-05-21 13:28:00,
2013-05-21 09:33:00,49.0,48.2,30.00,ESE,109,1.0,1.0,97,0.10,,,0.08,105,Wunderground v.1.15,2013-05-21 13:33:00,
2013-05-21 09:39:00,49.0,48.2,30.00,SSE,147,1.0,6.0,97,0.09,,,0.08,62,Wunderground v.1.15,2013-05-21 13:39:00,
2013-05-21 09:44:00,48.8,48.0,30.00,South,181,2.0,4.0,97,0.05,,,0.08,47,Wunderground v.1.15,2013-05-21 13:44:00,
2013-05-21 09:49:00,48.8,48.0,30.02,South,169,3.0,5.0,97,0.04,,,0.09,46,Wunderground v.1.15,2013-05-21 13:49:00,
2013-05-21 09:54:00,48.9,48.1,30.03,SE,129,3.0,4.0,97,0.04,,,0.09,35,Wunderground v.1.15,2013-05-21 13:54:00,
2013-05-21 09:59:00,48.8,48.0,30.02,South,171,3.0,8.0,97,0.04,,,0.09,35,Wunderground v.1.15,2013-05-21 13:59:00,
2013-05-21 10:04:00,48.8,48.0,30.02,SE,138,2.0,3.0,97,0.04,,,0.09,32,Wunderground v.1.15,2013-05-21 14:04:00,
2013-05-21 10:09:00,48.9,48.1,30.02,NNE,17,1.0,3.0,97,0.00,,,0.09,30,Wunderground v.1.15,2013-05-21 14:09:00,
2013-05-21 10:14:00,48.8,48.0,30.03,North,5,1.0,1.0,97,0.00,,,0.09,33,Wunderground v.1.15,2013-05-21 14:14:00,
2013-05-21 10:19:00,48.8,48.0,30.01,SE,126,1.0,5.0,97,0.00,,,0.09,35,Wunderground v.1.15,2013-05-21 14:19:00,
2013-05-21 10:24:00,48.7,47.9,30.02,SSE,161,2.0,3.0,97,0.00,,,0.09,32,Wunderground v.1.15,2013-05-21 14:24:00,
2013-05-21 10:29:00,48.6,47.8,30.01,SSE,161,2.0,4.0,97,0.00,,,0.09,70,Wunderground v.1.15,2013-05-21 14:29:00,
2013-05-21 10:35:00,48.5,47.7,30.02,SE,144,2.0,7.0,97,0.00,,,0.09,47,Wunderground v.1.15,2013-05-21 14:35:00,
2013-05-21 10:40:00,48.5,47.7,30.02,North,10,2.0,2.0,97,0.00,,,0.09,58,Wunderground v.1.15,2013-05-21 14:40:00,
2013-05-21 10:46:00,48.5,47.7,30.04,NNE,19,1.0,2.0,97,0.00,,,0.09,70,Wunderground v.1.15,2013-05-21 14:46:00,
2013-05-21 10:51:00,48.5,47.7,30.04,North,11,1.0,1.0,97,0.00,,,0.10,30,Wunderground v.1.15,2013-05-21 14:51:00,
2013-05-21 10:56:00,48.5,47.7,30.02,SE,134,2.0,4.0,97,0.08,,,0.11,223,Wunderground v.1.15,2013-05-21 14:56:00,
2013-05-21 11:02:00,48.6,47.8,30.03,NE,45,2.0,2.0,97,0.08,,,0.11,70,Wunderground v.1.15,2013-05-21 15:02:00,
2013-05-21 11:07:00,48.6,47.8,30.03,East,98,1.0,5.0,97,0.07,,,0.12,95,Wunderground v.1.15,2013-05-21 15:07:00,
2013-05-21 11:13:00,48.6,47.8,30.03,SSE,148,1.0,2.0,97,0.09,,,0.13,206,Wunderground v.1.15,2013-05-21 15:13:00,
2013-05-21 11:18:00,48.8,48.0,30.02,SSE,161,2.0,5.0,97,0.22,,,0.15,250,Wunderground v.1.15,2013-05-21 15:18:00,
2013-05-21 11:23:00,49.0,48.2,30.04,North,360,2.0,2.0,97,0.08,,,0.15,63,Wunderground v.1.15,2013-05-21 15:23:00,
2013-05-21 11:28:00,49.0,48.2,30.03,ESE,111,1.0,2.0,97,0.05,,,0.16,53,Wunderground v.1.15,2013-05-21 15:28:00,
2013-05-21 11:34:00,48.8,48.0,30.03,SE,138,2.0,6.0,97,0.05,,,0.16,74,Wunderground v.1.15,2013-05-21 15:34:00,
2013-05-21 11:39:00,48.6,47.8,30.04,NNE,17,2.0,6.0,97,0.07,,,0.17,42,Wunderground v.1.15,2013-05-21 15:39:00,
2013-05-21 11:44:00,48.6,47.8,30.05,WNW,302,1.0,2.0,97,0.07,,,0.17,35,Wunderground v.1.15,2013-05-21 15:44:00,
2013-05-21 11:49:00,48.7,47.9,30.05,WNW,302,0.0,2.0,97,0.04,,,0.17,33,Wunderground v.1.15,2013-05-21 15:49:00,
2013-05-21 11:54:00,48.8,48.0,30.05,NE,43,0.0,1.0,97,0.00,,,0.17,35,Wunderground v.1.15,2013-05-21 15:54:00,
2013-05-21 12:00:00,48.7,47.9,30.06,NNE,28,0.0,0.0,97,0.16,,,0.19,56,Wunderground v.1.15,2013-05-21 16:00:00,
2013-05-21 12:06:00,48.9,48.1,30.05,ENE,67,0.0,0.0,97,0.09,,,0.20,74,Wunderground v.1.15,2013-05-21 16:06:00,
2013-05-21 12:12:00,48.8,48.0,30.05,NE,43,1.0,5.0,97,0.07,,,0.20,81,Wunderground v.1.15,2013-05-21 16:12:00,
2013-05-21 12:17:00,48.8,48.0,30.05,NNE,30,1.0,5.0,97,0.07,,,0.21,95,Wunderground v.1.15,2013-05-21 16:17:00,
2013-05-21 12:22:00,49.0,48.2,30.05,NE,36,1.0,1.0,97,0.06,,,0.22,84,Wunderground v.1.15,2013-05-21 16:22:00,
2013-05-21 12:28:00,49.1,48.6,30.04,ESE,121,0.0,1.0,98,0.06,,,0.22,130,Wunderground v.1.15,2013-05-21 16:28:00,
2013-05-21 12:33:00,49.2,48.7,30.03,ENE,76,1.0,3.0,98,0.05,,,0.22,111,Wunderground v.1.15,2013-05-21 16:33:00,
2013-05-21 12:38:00,49.4,48.9,30.03,South,178,1.0,3.0,98,0.04,,,0.22,121,Wunderground v.1.15,2013-05-21 16:38:00,
2013-05-21 12:44:00,49.5,49.0,30.03,SE,142,1.0,2.0,98,0.00,,,0.22,88,Wunderground v.1.15,2013-05-21 16:44:00,
2013-05-21 12:50:00,49.4,48.6,30.02,East,86,1.0,1.0,97,0.00,,,0.22,88,Wunderground v.1.15,2013-05-21 16:50:00,
2013-05-21 12:55:00,49.4,48.9,30.02,ESE,117,1.0,2.0,98,0.00,,,0.22,83,Wunderground v.1.15,2013-05-21 16:55:00,
2013-05-21 13:00:00,49.3,48.8,30.02,NNE,30,1.0,1.0,98,0.00,,,0.22,74,Wunderground v.1.15,2013-05-21 17:00:00,
2013-05-21 13:05:00,49.2,48.7,30.02,East,97,1.0,2.0,98,0.00,,,0.22,69,Wunderground v.1.15,2013-05-21 17:05:00,
2013-05-21 13:10:00,49.2,48.4,30.02,NNE,17,1.0,2.0,97,0.00,,,0.22,79,Wunderground v.1.15,2013-05-21 17:10:00,
2013-05-21 13:16:00,49.2,48.7,30.02,SE,131,1.0,2.0,98,0.00,,,0.22,65,Wunderground v.1.15,2013-05-21 17:16:00,
2013-05-21 13:21:00,49.2,48.7,30.02,East,85,1.0,1.0,98,0.00,,,0.23,107,Wunderground v.1.15,2013-05-21 17:21:00,
2013-05-21 13:27:00,49.3,48.8,30.02,North,360,0.0,3.0,98,0.00,,,0.23,95,Wunderground v.1.15,2013-05-21 17:27:00,
2013-05-21 13:32:00,49.2,48.7,30.02,ENE,77,1.0,1.0,98,0.00,,,0.23,83,Wunderground v.1.15,2013-05-21 17:32:00,
2013-05-21 13:37:00,49.2,48.4,30.01,ESE,104,2.0,2.0,97,0.00,,,0.23,116,Wunderground v.1.15,2013-05-21 17:37:00,
2013-05-21 13:42:00,49.2,48.7,30.01,East,88,1.0,3.0,98,0.00,,,0.23,123,Wunderground v.1.15,2013-05-21 17:42:00,
2013-05-21 13:47:00,49.2,48.7,30.01,SSE,157,1.0,3.0,98,0.00,,,0.23,95,Wunderground v.1.15,2013-05-21 17:47:00,
2013-05-21 13:53:00,49.3,48.8,30.01,SE,132,1.0,2.0,98,0.00,,,0.23,114,Wunderground v.1.15,2013-05-21 17:53:00,
2013-05-21 13:58:00,49.3,48.8,30.01,ENE,70,1.0,3.0,98,0.00,,,0.23,120,Wunderground v.1.15,2013-05-21 17:58:00,
2013-05-21 14:04:00,49.3,48.5,30.01,SSE,148,1.0,2.0,97,0.00,,,0.23,90,Wunderground v.1.15,2013-05-21 18:04:00,
2013-05-21 14:09:00,49.2,48.4,30.01,NNE,32,1.0,3.0,97,0.00,,,0.23,74,Wunderground v.1.15,2013-05-21 18:09:00,
2013-05-21 14:14:00,49.3,48.5,30.02,NE,43,1.0,3.0,97,0.00,,,0.23,58,Wunderground v.1.15,2013-05-21 18:14:00,
2013-05-21 14:20:00,49.3,48.8,30.02,SW,227,1.0,1.0,98,0.00,,,0.23,77,Wunderground v.1.15,2013-05-21 18:20:00,
2013-05-21 14:26:00,49.2,48.4,30.02,SSE,166,1.0,3.0,97,0.00,,,0.23,63,Wunderground v.1.15,2013-05-21 18:26:00,
2013-05-21 14:31:00,49.1,48.3,30.03,NNE,15,2.0,4.0,97,0.00,,,0.23,56,Wunderground v.1.15,2013-05-21 18:31:00,
2013-05-21 14:36:00,49.1,48.3,30.03,ENE,65,2.0,5.0,97,0.00,,,0.23,54,Wunderground v.1.15,2013-05-21 18:36:00,
2013-05-21 14:42:00,49.1,48.3,30.03,ENE,61,2.0,3.0,97,0.00,,,0.23,46,Wunderground v.1.15,2013-05-21 18:42:00,
2013-05-21 14:47:00,49.2,48.4,30.03,NE,40,1.0,3.0,97,0.00,,,0.23,74,Wunderground v.1.15,2013-05-21 18:47:00,
2013-05-21 14:52:00,49.2,48.7,30.04,NNW,344,1.0,4.0,98,0.00,,,0.23,58,Wunderground v.1.15,2013-05-21 18:52:00,
2013-05-21 14:57:00,49.3,48.8,30.03,NW,323,1.0,4.0,98,0.00,,,0.23,62,Wunderground v.1.15,2013-05-21 18:57:00,
2013-05-21 15:02:00,49.3,48.8,30.04,NNW,342,2.0,4.0,98,0.00,,,0.23,51,Wunderground v.1.15,2013-05-21 19:02:00,
2013-05-21 15:07:00,49.3,48.8,30.04,ENE,75,2.0,6.0,98,0.00,,,0.24,77,Wunderground v.1.15,2013-05-21 19:07:00,
2013-05-21 15:12:00,49.4,48.9,30.04,North,9,2.0,2.0,98,0.00,,,0.24,83,Wunderground v.1.15,2013-05-21 19:12:00,
2013-05-21 15:17:00,49.4,48.9,30.04,NNE,24,1.0,4.0,98,0.07,,,0.25,91,Wunderground v.1.15,2013-05-21 19:17:00,
2013-05-21 15:23:00,49.3,48.8,30.04,NNE,20,2.0,3.0,98,0.08,,,0.26,84,Wunderground v.1.15,2013-05-21 19:23:00,
2013-05-21 15:28:00,49.3,48.8,30.04,NE,34,2.0,3.0,98,0.08,,,0.26,98,Wunderground v.1.15,2013-05-21 19:28:00,
2013-05-21 15:34:00,49.5,49.0,30.04,NE,40,1.0,2.0,98,0.05,,,0.26,114,Wunderground v.1.15,2013-05-21 19:34:00,
2013-05-21 15:40:00,49.6,49.1,30.04,East,86,1.0,5.0,98,0.00,,,0.26,109,Wunderground v.1.15,2013-05-21 19:40:00,
2013-05-21 15:45:00,49.5,48.7,30.04,NE,42,2.0,5.0,97,0.00,,,0.27,95,Wunderground v.1.15,2013-05-21 19:45:00,
2013-05-21 15:50:00,49.5,49.0,30.04,NE,49,2.0,2.0,98,0.00,,,0.27,100,Wunderground v.1.15,2013-05-21 19:50:00,
2013-05-21 15:56:00,49.6,49.1,30.04,NE,43,1.0,3.0,98,0.00,,,0.27,116,Wunderground v.1.15,2013-05-21 19:56:00,
2013-05-21 16:02:00,49.6,48.8,30.03,ENE,73,1.0,3.0,97,0.00,,,0.27,167,Wunderground v.1.15,2013-05-21 20:02:00,
2013-05-21 16:08:00,49.7,49.2,30.03,ENE,65,1.0,3.0,98,0.00,,,0.27,123,Wunderground v.1.15,2013-05-21 20:08:00,
2013-05-21 16:13:00,49.8,49.3,30.03,North,5,1.0,4.0,98,0.00,,,0.27,134,Wunderground v.1.15,2013-05-21 20:13:00,
2013-05-21 16:18:00,49.8,49.3,30.03,NE,37,1.0,4.0,98,0.00,,,0.27,130,Wunderground v.1.15,2013-05-21 20:18:00,
2013-05-21 16:24:00,50.0,49.5,30.04,SW,228,1.0,1.0,98,0.00,,,0.27,91,Wunderground v.1.15,2013-05-21 20:24:00,
2013-05-21 16:29:00,50.0,49.5,30.04,ENE,77,0.0,1.0,98,0.00,,,0.27,54,Wunderground v.1.15,2013-05-21 20:29:00,
2013-05-21 16:34:00,50.1,49.6,30.03,South,178,0.0,2.0,98,0.00,,,0.27,79,Wunderground v.1.15,2013-05-21 20:34:00,
2013-05-21 16:39:00,50.1,49.3,30.04,ESE,108,1.0,2.0,97,0.00,,,0.27,72,Wunderground v.1.15,2013-05-21 20:39:00,
2013-05-21 16:44:00,50.1,49.6,30.04,ESE,108,0.0,1.0,98,0.00,,,0.27,54,Wunderground v.1.15,2013-05-21 20:44:00,
2013-05-21 16:50:00,50.2,49.4,30.04,ESE,108,0.0,0.0,97,0.00,,,0.27,67,Wunderground v.1.15,2013-05-21 20:50:00,
2013-05-21 16:55:00,50.3,49.5,30.03,East,97,0.0,2.0,97,0.00,,,0.27,102,Wunderground v.1.15,2013-05-21 20:55:00,
2013-05-21 17:01:00,50.4,49.6,30.03,SSE,155,0.0,0.0,97,0.00,,,0.27,74,Wunderground v.1.15,2013-05-21 21:01:00,
2013-05-21 17:06:00,50.4,49.9,30.03,SSE,161,0.0,3.0,98,0.00,,,0.27,76,Wunderground v.1.15,2013-05-21 21:06:00,
2013-05-21 17:12:00,50.5,50.0,30.03,South,189,0.0,1.0,98,0.00,,,0.27,83,Wunderground v.1.15,2013-05-21 21:12:00,
2013-05-21 17:17:00,50.5,50.0,30.03,SE,130,0.0,1.0,98,0.00,,,0.27,74,Wunderground v.1.15,2013-05-21 21:17:00,
2013-05-21 17:22:00,50.5,49.7,30.03,SE,132,1.0,1.0,97,0.00,,,0.27,51,Wunderground v.1.15,2013-05-21 21:22:00,
2013-05-21 17:27:00,50.5,49.7,30.03,NE,46,0.0,1.0,97,0.00,,,0.27,39,Wunderground v.1.15,2013-05-21 21:27:00,
2013-05-21 17:32:00,50.4,49.6,30.04,ESE,117,1.0,3.0,97,0.00,,,0.27,28,Wunderground v.1.15,2013-05-21 21:32:00,
2013-05-21 17:38:00,50.3,49.5,30.04,NE,46,1.0,3.0,97,0.00,,,0.27,23,Wunderground v.1.15,2013-05-21 21:38:00,
2013-05-21 17:43:00,50.3,49.5,30.04,ENE,63,0.0,1.0,97,0.00,,,0.27,30,Wunderground v.1.15,2013-05-21 21:43:00,
2013-05-21 17:48:00,50.3,49.5,30.05,ESE,120,0.0,1.0,97,0.00,,,0.27,26,Wunderground v.1.15,2013-05-21 21:48:00,
2013-05-21 17:54:00,50.3,49.5,30.04,ESE,120,0.0,0.0,97,0.00,,,0.27,32,Wunderground v.1.15,2013-05-21 21:54:00,
2013-05-21 17:59:00,50.2,49.4,30.04,East,89,0.0,1.0,97,0.00,,,0.27,40,Wunderground v.1.15,2013-05-21 21:59:00,
2013-05-21 18:04:00,50.2,49.4,30.05,East,88,0.0,0.0,97,0.00,,,0.27,37,Wunderground v.1.15,2013-05-21 22:04:00,
2013-05-21 18:10:00,50.1,49.3,30.05,East,84,0.0,0.0,97,0.00,,,0.27,30,Wunderground v.1.15,2013-05-21 22:10:00,
2013-05-21 18:15:00,50.1,49.3,30.05,SSE,154,0.0,2.0,97,0.00,,,0.27,33,Wunderground v.1.15,2013-05-21 22:15:00,
2013-05-21 18:20:00,50.0,49.2,30.05,SSE,154,0.0,1.0,97,0.00,,,0.27,37,Wunderground v.1.15,2013-05-21 22:20:00,
2013-05-21 18:25:00,50.0,49.2,30.05,SSE,159,0.0,1.0,97,0.00,,,0.27,33,Wunderground v.1.15,2013-05-21 22:25:00,
2013-05-21 18:30:00,49.9,49.1,30.05,SE,126,0.0,2.0,97,0.00,,,0.27,26,Wunderground v.1.15,2013-05-21 22:30:00,
2013-05-21 18:35:00,49.8,49.0,30.05,ESE,109,0.0,2.0,97,0.00,,,0.27,26,Wunderground v.1.15,2013-05-21 22:35:00,
2013-05-21 18:40:00,49.7,48.9,30.05,ESE,120,1.0,2.0,97,0.00,,,0.27,47,Wunderground v.1.15,2013-05-21 22:40:00,
2013-05-21 18:45:00,49.6,48.8,30.05,East,98,1.0,2.0,97,0.00,,,0.27,49,Wunderground v.1.15,2013-05-21 22:45:00,
2013-05-21 18:51:00,49.6,48.8,30.05,SE,127,0.0,1.0,97,0.00,,,0.27,37,Wunderground v.1.15,2013-05-21 22:51:00,
2013-05-21 18:56:00,49.5,48.7,30.05,SSE,165,0.0,2.0,97,0.00,,,0.27,35,Wunderground v.1.15,2013-05-21 22:56:00,
2013-05-21 19:01:00,49.4,48.6,30.05,NNW,348,1.0,2.0,97,0.00,,,0.27,26,Wunderground v.1.15,2013-05-21 23:01:00,
2013-05-21 19:07:00,49.2,48.4,30.05,South,186,0.0,2.0,97,0.00,,,0.27,21,Wunderground v.1.15,2013-05-21 23:07:00,
2013-05-21 19:12:00,49.0,48.2,30.05,ESE,110,1.0,1.0,97,0.00,,,0.27,19,Wunderground v.1.15,2013-05-21 23:12:00,
2013-05-21 19:17:00,48.9,48.1,30.06,SSW,211,1.0,1.0,97,0.00,,,0.27,12,Wunderground v.1.15,2013-05-21 23:17:00,
2013-05-21 19:23:00,48.8,48.0,30.06,SSE,164,0.0,0.0,97,0.00,,,0.27,7,Wunderground v.1.15,2013-05-21 23:23:00,
2013-05-21 19:28:00,48.7,47.9,30.05,SE,130,0.0,0.0,97,0.00,,,0.27,9,Wunderground v.1.15,2013-05-21 23:28:00,
2013-05-21 19:33:00,48.7,47.9,30.05,NE,38,0.0,2.0,97,0.00,,,0.27,11,Wunderground v.1.15,2013-05-21 23:33:00,
2013-05-21 19:39:00,48.6,47.8,30.05,NE,36,0.0,2.0,97,0.00,,,0.27,9,Wunderground v.1.15,2013-05-21 23:39:00,
2013-05-21 19:45:00,48.6,47.8,30.05,NE,36,0.0,0.0,97,0.00,,,0.27,9,Wunderground v.1.15,2013-05-21 23:45:00,
2013-05-21 19:51:00,48.6,47.8,30.05,East,98,0.0,0.0,97,0.00,,,0.27,5,Wunderground v.1.15,2013-05-21 23:51:00,
2013-05-21 19:56:00,48.5,47.7,30.05,East,92,0.0,1.0,97,0.00,,,0.27,5,Wunderground v.1.15,2013-05-21 23:56:00,
2013-05-21 20:02:00,48.5,47.7,30.05,SE,133,0.0,0.0,97,0.00,,,0.27,0,Wunderground v.1.15,2013-05-22 00:02:00,
2013-05-21 20:07:00,48.5,47.7,30.05,SE,133,0.0,0.0,97,0.00,,,0.27,0,Wunderground v.1.15,2013-05-22 00:07:00,
2013-05-21 20:13:00,48.5,47.7,30.05,SE,133,0.0,0.0,97,0.00,,,0.27,0,Wunderground v.1.15,2013-05-22 00:13:00,
2013-05-21 20:18:00,48.5,47.7,30.05,SE,133,0.0,0.0,97,0.00,,,0.27,0,Wunderground v.1.15,2013-05-22 00:18:00,
2013-05-21 20:23:00,48.5,47.7,30.05,SE,133,0.0,1.0,97,0.00,,,0.27,0,Wunderground v.1.15,2013-05-22 00:23:00,
2013-05-21 20:28:00,48.4,47.6,30.06,SE,133,0.0,1.0,97,0.00,,,0.27,0,Wunderground v.1.15,2013-05-22 00:28:00,
2013-05-21 20:33:00,48.4,47.6,30.07,SE,133,0.0,0.0,97,0.00,,,0.27,0,Wunderground v.1.15,2013-05-22 00:33:00,
2013-05-21 20:38:00,48.3,47.5,30.07,SE,133,0.0,0.0,97,0.00,,,0.27,0,Wunderground v.1.15,2013-05-22 00:38:00,
2013-05-21 20:44:00,48.3,47.5,30.07,SE,133,0.0,0.0,97,0.00,,,0.27,0,Wunderground v.1.15,2013-05-22 00:44:00,
2013-05-21 20:49:00,48.3,47.5,30.07,SE,133,0.0,0.0,97,0.00,,,0.27,0,Wunderground v.1.15,2013-05-22 00:49:00,
2013-05-21 20:54:00,48.2,47.4,30.07,ESE,117,0.0,2.0,97,0.00,,,0.27,0,Wunderground v.1.15,2013-05-22 00:54:00,
2013-05-21 21:00:00,48.1,47.3,30.07,ESE,108,0.0,0.0,97,0.00,,,0.27,0,Wunderground v.1.15,2013-05-22 01:00:00,
2013-05-21 21:05:00,48.1,47.3,30.07,ESE,108,0.0,0.0,97,0.00,,,0.27,0,Wunderground v.1.15,2013-05-22 01:05:00,
2013-05-21 21:11:00,48.1,47.3,30.07,SSE,166,0.0,0.0,97,0.00,,,0.27,0,Wunderground v.1.15,2013-05-22 01:11:00,
2013-05-21 21:17:00,48.1,47.3,30.07,SSE,166,0.0,0.0,97,0.00,,,0.27,0,Wunderground v.1.15,2013-05-22 01:17:00,
2013-05-21 21:23:00,48.1,47.3,30.07,SSE,166,0.0,0.0,97,0.00,,,0.27,0,Wunderground v.1.15,2013-05-22 01:23:00,
2013-05-21 21:28:00,48.1,47.3,30.07,SSE,166,0.0,0.0,97,0.00,,,0.27,0,Wunderground v.1.15,2013-05-22 01:28:00,
2013-05-21 21:34:00,48.1,47.3,30.06,SSE,166,0.0,0.0,97,0.00,,,0.27,0,Wunderground v.1.15,2013-05-22 01:34:00,
2013-05-21 21:39:00,48.1,47.3,30.06,SSE,157,0.0,1.0,97,0.00,,,0.27,0,Wunderground v.1.15,2013-05-22 01:39:00,
2013-05-21 21:44:00,48.0,47.2,30.05,SSE,157,0.0,0.0,97,0.00,,,0.27,0,Wunderground v.1.15,2013-05-22 01:44:00,
2013-05-21 21:49:00,48.0,47.2,30.05,SSE,157,0.0,0.0,97,0.00,,,0.27,0,Wunderground v.1.15,2013-05-22 01:49:00,
2013-05-21 21:55:00,48.0,47.2,30.05,WSW,252,0.0,1.0,97,0.00,,,0.27,0,Wunderground v.1.15,2013-05-22 01:55:00,
2013-05-21 22:00:00,48.0,47.2,30.06,SE,127,1.0,1.0,97,0.00,,,0.27,0,Wunderground v.1.15,2013-05-22 02:00:00,
2013-05-21 22:06:00,47.9,47.1,30.06,SE,127,0.0,1.0,97,0.00,,,0.27,0,Wunderground v.1.15,2013-05-22 02:06:00,
2013-05-21 22:12:00,48.0,47.2,30.06,SE,127,0.0,0.0,97,0.00,,,0.27,0,Wunderground v.1.15,2013-05-22 02:12:00,
2013-05-21 22:17:00,48.0,47.2,30.05,SE,124,0.0,0.0,97,0.00,,,0.27,0,Wunderground v.1.15,2013-05-22 02:17:00,
2013-05-21 22:22:00,48.0,47.2,30.05,ESE,112,0.0,0.0,97,0.00,,,0.27,0,Wunderground v.1.15,2013-05-22 02:22:00,
2013-05-21 22:28:00,47.9,47.1,30.04,ESE,113,0.0,1.0,97,0.00,,,0.27,0,Wunderground v.1.15,2013-05-22 02:28:00,
2013-05-21 22:34:00,48.0,47.5,30.05,East,89,0.0,0.0,98,0.00,,,0.27,0,Wunderground v.1.15,2013-05-22 02:34:00,
2013-05-21 22:40:00,48.0,47.5,30.05,NNE,26,0.0,0.0,98,0.00,,,0.27,0,Wunderground v.1.15,2013-05-22 02:40:00,
2013-05-21 22:45:00,48.0,47.5,30.04,ESE,108,0.0,0.0,98,0.00,,,0.27,0,Wunderground v.1.15,2013-05-22 02:45:00,
2013-05-21 22:50:00,48.0,47.5,30.03,ESE,107,0.0,0.0,98,0.00,,,0.27,0,Wunderground v.1.15,2013-05-22 02:50:00,
2013-05-21 22:56:00,48.0,47.5,30.03,ESE,121,0.0,2.0,98,0.00,,,0.27,0,Wunderground v.1.15,2013-05-22 02:56:00,
2013-05-21 23:02:00,48.0,47.5,30.03,North,355,0.0,0.0,98,0.00,,,0.27,0,Wunderground v.1.15,2013-05-22 03:02:00,
2013-05-21 23:07:00,47.9,47.4,30.02,NE,53,1.0,3.0,98,0.00,,,0.27,0,Wunderground v.1.15,2013-05-22 03:07:00,
2013-05-21 23:13:00,47.9,47.4,30.01,WNW,288,1.0,1.0,98,0.00,,,0.27,0,Wunderground v.1.15,2013-05-22 03:13:00,
2013-05-21 23:18:00,47.9,47.4,30.05,WNW,303,1.0,2.0,98,0.00,,,0.27,0,Wunderground v.1.15,2013-05-22 03:18:00,
2013-05-21 23:24:00,48.0,47.5,30.03,East,94,1.0,3.0,98,0.00,,,0.28,0,Wunderground v.1.15,2013-05-22 03:24:00,
2013-05-21 23:30:00,48.0,47.5,30.05,WNW,300,1.0,2.0,98,0.36,,,0.32,0,Wunderground v.1.15,2013-05-22 03:30:00,
2013-05-21 23:35:00,48.0,47.5,30.06,WNW,299,1.0,2.0,98,0.15,,,0.33,0,Wunderground v.1.15,2013-05-22 03:35:00,
2013-05-21 23:41:00,48.0,47.5,30.04,North,5,1.0,1.0,98,0.66,,,0.37,0,Wunderground v.1.15,2013-05-22 03:41:00,
2013-05-21 23:46:00,48.0,47.5,30.05,NW,318,1.0,1.0,98,0.57,,,0.40,0,Wunderground v.1.15,2013-05-22 03:46:00,
2013-05-21 23:51:00,47.9,47.4,30.06,West,277,1.0,3.0,98,0.23,,,0.43,0,Wunderground v.1.15,2013-05-22 03:51:00,
2013-05-21 23:56:00,48.0,47.5,30.09,WNW,296,1.0,3.0,98,0.09,,,0.44,0,Wunderground v.1.15,2013-05-22 03:56:00,